Abingdon, VA

1:02 PM EST on December 05, 2019 (GMT -0500)
Virginia Highlands

Weather History for KVJI - November, 2019

Change the Weather History Date:

Wednesday, November 13, 2019

  Actual Average (KTRI) Record (KTRI)
Temperature  
Mean Temperature 26 °F -  
Max Temperature 41 °F 56 °F 78 °F (1945)
Min Temperature 12 °F 33 °F 15 °F (2019)
Degree Days  
Heating Degree Days 38    
Moisture  
Dew Point 11 °F    
Average Humidity 56    
Maximum Humidity 79    
Minimum Humidity 35    
Precipitation  
Precipitation 0.00 in - - ()
Sea Level Pressure  
Sea Level Pressure 30.26 in    
Wind  
Wind Speed 4 mph (East)    
Max Wind Speed 12 mph    
Max Gust Speed -    
Visibility 10 miles    
Events Snow    
Averages and records for this station are not official NWS values.
T = Trace of Precipitation, MM = Missing Value Source: NWS Daily Summary

Daily Weather History Graph

Daily Weather History Graph

Search for Another Location

Airport or City:

Astronomy

Nov. 13, 2019 Rise Set
Actual Time 7:03 AM EST 5:20 PM EST
Civil Twilight 6:36 AM EST 5:48 PM EST
Nautical Twilight 6:05 AM EST 6:19 PM EST
Astronomical Twilight 5:34 AM EST 6:49 PM EST
Moon 6:23 PM EST (11/13) 7:55 AM EST (11/13)
Length of Visible Light 11h 11m
Length of Day
10h 16m
Full, 99% of the Moon is Illuminated
Nov 13
Full
Nov 19
Last Quarter
Nov 26
New
Dec 4
First Quarter
Dec 12
Full

Hourly Weather History & Observations

Time (EST) Temp. Windchill Dew Point Humidity Pressure Visibility Wind Dir Wind Speed Gust Speed Precip Events Conditions
12:15 AM 18.3 °F 11.5 °F 7.5 °F 63% 30.28 in 10.0 mi ENE 4.6 mph - N/A Snow Light Snow
12:35 AM 17.6 °F - 5.5 °F 59% 30.28 in 10.0 mi Calm Calm - N/A   Scattered Clouds
12:55 AM 17.2 °F - 5.0 °F 59% 30.28 in 10.0 mi Calm Calm - N/A   Clear
1:35 AM 16.0 °F 10.4 °F 5.7 °F 64% 30.29 in 10.0 mi NNE 3.5 mph - N/A   Clear
1:55 AM 16.7 °F - 5.5 °F 62% 30.29 in 10.0 mi Calm Calm - N/A   Clear
2:15 AM 15.8 °F - 5.7 °F 64% 30.28 in 10.0 mi Calm Calm - N/A   Clear
3:35 AM 13.8 °F - 7.2 °F 75% 30.30 in 10.0 mi Calm Calm - N/A   Clear
3:55 AM 13.1 °F - 6.8 °F 76% 30.30 in 10.0 mi Calm Calm - N/A   Clear
4:15 AM 12.4 °F - 6.8 °F 78% 30.30 in 10.0 mi Calm Calm - N/A   Clear
4:55 AM 13.3 °F - 7.7 °F 78% 30.30 in 10.0 mi Calm Calm - N/A   Clear
5:15 AM 12.2 °F 6.1 °F 6.8 °F 79% 30.30 in 10.0 mi East 3.5 mph - N/A   Clear
5:35 AM 12.4 °F - 6.6 °F 78% 30.30 in 10.0 mi Calm Calm - N/A   Clear
5:55 AM 12.6 °F - 6.4 °F 77% 30.30 in 10.0 mi Calm Calm - N/A   Clear
6:15 AM 12.2 °F 6.1 °F 6.4 °F 78% 30.30 in 10.0 mi East 3.5 mph - N/A   Clear
6:35 AM 13.1 °F 5.4 °F 6.4 °F 75% 30.30 in 10.0 mi East 4.6 mph - N/A   Clear
6:55 AM 12.7 °F 5.0 °F 6.3 °F 75% 30.30 in 10.0 mi East 4.6 mph - N/A   Clear
7:35 AM 14.0 °F - 6.8 °F 73% 30.31 in 10.0 mi Calm Calm - N/A   Clear
7:55 AM 15.6 °F 7.0 °F 7.0 °F 69% 30.31 in 10.0 mi East 5.8 mph - N/A   Clear
8:15 AM 16.7 °F 8.3 °F 7.7 °F 68% 30.31 in 10.0 mi East 5.8 mph - N/A   Clear
8:35 AM 17.8 °F 10.9 °F 7.7 °F 65% 30.31 in 10.0 mi ESE 4.6 mph - N/A   Clear
8:55 AM 18.7 °F 9.5 °F 8.1 °F 63% 30.31 in 10.0 mi ESE 6.9 mph - N/A   Clear
9:15 AM 19.4 °F 11.5 °F 8.1 °F 61% 30.32 in 10.0 mi ESE 5.8 mph - N/A   Clear
9:35 AM 20.7 °F 13.0 °F 7.9 °F 58% 30.32 in 10.0 mi East 5.8 mph - N/A   Clear
9:55 AM 21.9 °F 12.5 °F 9.0 °F 58% 30.32 in 10.0 mi East 8.1 mph - N/A   Clear
10:15 AM 22.1 °F 11.3 °F 7.7 °F 54% 30.32 in 10.0 mi ESE 10.4 mph - N/A   Clear
10:35 AM 23.7 °F 14.0 °F 8.6 °F 53% 30.31 in 10.0 mi East 9.2 mph - N/A   Clear
10:55 AM 25.2 °F 15.7 °F 6.8 °F 46% 30.31 in 10.0 mi East 9.2 mph - N/A   Clear
11:15 AM 26.4 °F 17.3 °F 7.7 °F 45% 30.30 in 10.0 mi East 9.2 mph - N/A   Clear
11:55 AM 29.5 °F 21.1 °F 10.4 °F 45% 30.27 in 10.0 mi East 9.2 mph - N/A   Clear
12:15 PM 30.9 °F 24.3 °F 10.6 °F 43% 30.28 in 10.0 mi East 6.9 mph - N/A   Clear
12:35 PM 32.2 °F 25.8 °F 13.1 °F 45% 30.26 in 10.0 mi East 6.9 mph - N/A   Clear
12:55 PM 33.3 °F 25.7 °F 13.1 °F 43% 30.25 in 10.0 mi SE 9.2 mph - N/A   Clear
1:15 PM 34.2 °F 27.5 °F 13.5 °F 43% 30.25 in 10.0 mi ESE 8.1 mph - N/A   Clear
1:35 PM 35.1 °F 27.9 °F 12.6 °F 40% 30.24 in 10.0 mi East 9.2 mph - N/A   Clear
1:55 PM 36.7 °F 30.5 °F 13.8 °F 39% 30.23 in 10.0 mi ESE 8.1 mph - N/A   Clear
2:15 PM 37.8 °F 34.2 °F 12.9 °F 36% 30.23 in 10.0 mi East 4.6 mph - N/A   Clear
2:35 PM 38.5 °F - 14.2 °F 37% 30.23 in 10.0 mi Calm Calm - N/A   Clear
2:55 PM 38.5 °F - 12.7 °F 35% 30.22 in 10.0 mi Calm Calm - N/A   Clear
3:15 PM 40.1 °F 38.0 °F 14.5 °F 35% 30.22 in 10.0 mi ESE 3.5 mph - N/A   Clear
3:35 PM 40.1 °F 36.1 °F 15.1 °F 36% 30.21 in 10.0 mi East 5.8 mph - N/A   Clear
3:55 PM 41.0 °F - 15.3 °F 35% 30.21 in 10.0 mi Calm Calm - N/A   Clear
4:15 PM 40.1 °F 36.9 °F 15.3 °F 36% 30.20 in 10.0 mi East 4.6 mph - N/A   Clear
4:35 PM 40.1 °F 38.0 °F 14.9 °F 36% 30.21 in 10.0 mi ESE 3.5 mph - N/A   Clear
4:55 PM 39.4 °F - 15.6 °F 38% 30.21 in 10.0 mi Calm Calm - N/A   Clear
5:15 PM 38.3 °F - 15.1 °F 39% 30.21 in 10.0 mi Calm Calm - N/A   Clear
5:35 PM 35.1 °F - 18.5 °F 51% 30.23 in 10.0 mi Calm Calm - N/A   Clear
5:55 PM 33.8 °F - 18.9 °F 54% 30.23 in 10.0 mi Calm Calm - N/A   Clear
6:15 PM 32.0 °F - 19.6 °F 60% 30.24 in 10.0 mi Calm Calm - N/A   Clear
6:35 PM 31.8 °F - 19.2 °F 60% 30.25 in 10.0 mi Calm Calm - N/A   Clear
6:55 PM 31.1 °F - 19.0 °F 61% 30.26 in 10.0 mi Calm Calm - N/A   Clear
7:35 PM 29.3 °F - 20.1 °F 69% 30.26 in 10.0 mi Calm Calm - N/A   Clear
8:15 PM 28.4 °F - 19.4 °F 69% 30.25 in 10.0 mi Calm Calm - N/A   Clear
8:35 PM 28.2 °F 22.0 °F 18.5 °F 67% 30.25 in 10.0 mi East 5.8 mph - N/A   Clear
8:55 PM 28.2 °F - 19.0 °F 68% 30.25 in 10.0 mi Calm Calm - N/A   Clear
9:15 PM 27.7 °F 22.4 °F 17.8 °F 66% 30.24 in 10.0 mi East 4.6 mph - N/A   Clear
9:35 PM 28.2 °F 19.5 °F 15.6 °F 59% 30.24 in 10.0 mi East 9.2 mph - N/A   Clear
9:55 PM 28.0 °F 20.0 °F 13.5 °F 54% 30.23 in 10.0 mi East 8.1 mph - N/A   Clear
10:15 PM 26.8 °F 19.3 °F 13.5 °F 57% 30.24 in 10.0 mi East 6.9 mph - N/A   Clear
10:55 PM 27.9 °F 17.8 °F 11.1 °F 50% 30.22 in 10.0 mi East 11.5 mph - N/A   Clear
11:15 PM 28.0 °F 18.1 °F 10.6 °F 48% 30.22 in 10.0 mi East 11.5 mph - N/A   Clear
11:35 PM 28.0 °F 18.6 °F 10.2 °F 47% 30.22 in 10.0 mi East 10.4 mph - N/A   Clear
11:55 PM 28.9 °F 19.8 °F 8.4 °F 42% 30.22 in 10.0 mi East 10.4 mph - N/A   Clear